When you browse on this site, cookies collect data to enhance your experience and personalize the content and advertising you see.
Visit our Privacy Policy to learn more. By continuing to use the site, you agree to this use of cookies and data.

Hourly Weather Bakans

Today, 13 August, Thursday

Time Temperature Precipitation Wind Pressure Humidity
00:00 +19°C° 0 mm 4 mps 740 mmHg 94%
01:00 +19°C° 0 mm 4 mps 740 mmHg 94%
02:00 +19°C° 0 mm 4 mps 740 mmHg 95%
03:00 +19°C° 0 mm 4 mps 740 mmHg 95%
04:00 +19°C° 0 mm 4 mps 739 mmHg 95%
05:00 +19°C° 0 mm 4 mps 739 mmHg 94%
06:00 +20°C° 0.2 mm 5 mps 739 mmHg 92%
07:00 +21°C° 0.2 mm 5 mps 739 mmHg 90%
08:00 +21°C° 0.2 mm 6 mps 739 mmHg 88%
09:00 +22°C° 0.5 mm 5 mps 739 mmHg 89%
10:00 +22°C° 0.5 mm 5 mps 739 mmHg 90%
11:00 +22°C° 0.5 mm 5 mps 739 mmHg 90%
12:00 +22°C° 0.5 mm 4 mps 739 mmHg 89%
13:00 +23°C° 0.5 mm 4 mps 739 mmHg 87%
14:00 +23°C° 0.5 mm 4 mps 738 mmHg 85%
15:00 +25°C° 0.2 mm 4 mps 739 mmHg 79%
16:00 +25°C° 0.2 mm 4 mps 739 mmHg 73%
17:00 +26°C° 0.2 mm 4 mps 739 mmHg 67%
18:00 +23°C° 0 mm 4 mps 739 mmHg 73%
19:00 +21°C° 0 mm 3 mps 739 mmHg 78%
20:00 +19°C° 0 mm 3 mps 739 mmHg 84%
21:00 +18°C° 0 mm 3 mps 739 mmHg 85%
22:00 +17°C° 0 mm 3 mps 739 mmHg 86%
23:00 +17°C° 0 mm 3 mps 739 mmHg 88%

Tomorrow, 14 August, Friday

Time Temperature Precipitation Wind Pressure Humidity
00:00 +16°C° 0 mm 2 mps 739 mmHg 88%
01:00 +16°C° 0 mm 2 mps 739 mmHg 89%
02:00 +16°C° 0 mm 1 mps 739 mmHg 90%
03:00 +15°C° 0 mm 1 mps 739 mmHg 92%
04:00 +15°C° 0 mm 1 mps 739 mmHg 94%
05:00 +15°C° 0 mm 1 mps 740 mmHg 96%
06:00 +16°C° 0 mm 1 mps 740 mmHg 94%
07:00 +17°C° 0 mm 2 mps 740 mmHg 91%
08:00 +17°C° 0 mm 2 mps 740 mmHg 89%
09:00 +17°C° 0 mm 3 mps 741 mmHg 88%
10:00 +17°C° 0 mm 3 mps 741 mmHg 87%
11:00 +17°C° 0 mm 4 mps 741 mmHg 86%
12:00 +17°C° 0 mm 4 mps 741 mmHg 86%
13:00 +16°C° 0 mm 5 mps 741 mmHg 85%
14:00 +15°C° 0 mm 5 mps 742 mmHg 84%
15:00 +15°C° 0 mm 5 mps 742 mmHg 85%
16:00 +14°C° 0 mm 5 mps 742 mmHg 85%
17:00 +14°C° 0 mm 5 mps 742 mmHg 85%
18:00 +13°C° 0 mm 5 mps 743 mmHg 86%
19:00 +12°C° 0 mm 5 mps 743 mmHg 88%
20:00 +12°C° 0 mm 5 mps 744 mmHg 89%
21:00 +11°C° 0 mm 4 mps 744 mmHg 88%
22:00 +11°C° 0 mm 4 mps 744 mmHg 88%
23:00 +11°C° 0 mm 4 mps 744 mmHg 87%

Day after tomorrow, 15 August, Saturday

Time Temperature Precipitation Wind Pressure Humidity
00:00 +10°C° 0 mm 3 mps 744 mmHg 88%
01:00 +9°C° 0 mm 3 mps 744 mmHg 89%
02:00 +9°C° 0 mm 3 mps 745 mmHg 90%
03:00 +8°C° 0 mm 2 mps 745 mmHg 91%
04:00 +7°C° 0 mm 2 mps 745 mmHg 93%
05:00 +7°C° 0 mm 2 mps 745 mmHg 94%
06:00 +9°C° 0 mm 2 mps 746 mmHg 84%
07:00 +12°C° 0 mm 2 mps 746 mmHg 73%
08:00 +13°C° 0 mm 2 mps 746 mmHg 63%
09:00 +15°C° 0 mm 2 mps 746 mmHg 55%
10:00 +17°C° 0 mm 3 mps 746 mmHg 47%
11:00 +18°C° 0 mm 3 mps 746 mmHg 39%
12:00 +19°C° 0 mm 2 mps 746 mmHg 38%
13:00 +20°C° 0 mm 2 mps 746 mmHg 37%
14:00 +20°C° 0 mm 2 mps 746 mmHg 35%
15:00 +20°C° 0 mm 2 mps 746 mmHg 38%
16:00 +21°C° 0 mm 1 mps 746 mmHg 41%
17:00 +21°C° 0 mm 1 mps 745 mmHg 43%
18:00 +18°C° 0 mm 1 mps 746 mmHg 52%
19:00 +14°C° 0 mm 1 mps 746 mmHg 61%
20:00 +12°C° 0 mm 1 mps 746 mmHg 69%
21:00 +11°C° 0 mm 1 mps 746 mmHg 70%
22:00 +11°C° 0 mm 1 mps 746 mmHg 71%
23:00 +11°C° 0 mm 1 mps 746 mmHg 72%

16 August, Sunday

Time Temperature Precipitation Wind Pressure Humidity
00:00 +10°C° 0 mm 1 mps 746 mmHg 73%
01:00 +10°C° 0 mm 1 mps 746 mmHg 73%
02:00 +10°C° 0 mm 1 mps 745 mmHg 73%
03:00 +10°C° 0 mm 1 mps 746 mmHg 72%
04:00 +10°C° 0 mm 1 mps 746 mmHg 72%
05:00 +10°C° 0 mm 1 mps 746 mmHg 71%
06:00 +13°C° 0 mm 1 mps 746 mmHg 64%
07:00 +15°C° 0 mm 2 mps 746 mmHg 56%
08:00 +18°C° 0 mm 2 mps 746 mmHg 49%
09:00 +20°C° 0 mm 2 mps 746 mmHg 45%
10:00 +21°C° 0 mm 2 mps 746 mmHg 41%
11:00 +24°C° 0 mm 2 mps 745 mmHg 38%
12:00 +24°C° 0 mm 2 mps 745 mmHg 36%
13:00 +25°C° 0 mm 2 mps 745 mmHg 35%
14:00 +26°C° 0 mm 2 mps 745 mmHg 34%
15:00 +25°C° 0 mm 2 mps 745 mmHg 38%
16:00 +25°C° 0 mm 2 mps 744 mmHg 42%
17:00 +24°C° 0 mm 2 mps 744 mmHg 46%
18:00 +20°C° 0 mm 2 mps 744 mmHg 52%
19:00 +17°C° 0 mm 2 mps 744 mmHg 57%
20:00 +15°C° 0 mm 2 mps 744 mmHg 62%
21:00 +14°C° 0 mm 2 mps 744 mmHg 64%
22:00 +13°C° 0 mm 2 mps 744 mmHg 65%
23:00 +12°C° 0 mm 2 mps 744 mmHg 67%

17 August, Monday

Time Temperature Precipitation Wind Pressure Humidity
00:00 +12°C° 0 mm 2 mps 744 mmHg 70%
01:00 +10°C° 0 mm 2 mps 743 mmHg 74%
02:00 +10°C° 0 mm 2 mps 743 mmHg 78%
03:00 +9°C° 0 mm 2 mps 743 mmHg 79%
04:00 +9°C° 0 mm 2 mps 743 mmHg 80%
05:00 +9°C° 0 mm 2 mps 743 mmHg 81%
06:00 +13°C° 0 mm 2 mps 743 mmHg 73%
07:00 +15°C° 0 mm 2 mps 743 mmHg 65%
08:00 +18°C° 0 mm 2 mps 744 mmHg 57%
09:00 +20°C° 0 mm 2 mps 743 mmHg 51%
10:00 +21°C° 0 mm 2 mps 743 mmHg 46%
11:00 +24°C° 0 mm 2 mps 743 mmHg 40%
12:00 +25°C° 0 mm 2 mps 743 mmHg 39%
13:00 +25°C° 0 mm 2 mps 743 mmHg 37%
14:00 +26°C° 0 mm 3 mps 742 mmHg 35%
15:00 +25°C° 0 mm 3 mps 742 mmHg 43%
16:00 +25°C° 0 mm 3 mps 742 mmHg 50%
17:00 +24°C° 0 mm 3 mps 742 mmHg 58%
18:00 +20°C° 0 mm 2 mps 742 mmHg 66%
19:00 +18°C° 0 mm 2 mps 742 mmHg 74%
20:00 +16°C° 0 mm 2 mps 742 mmHg 83%
21:00 +15°C° 0 mm 2 mps 742 mmHg 83%
22:00 +15°C° 0 mm 1 mps 742 mmHg 84%
23:00 +14°C° 0 mm 1 mps 743 mmHg 85%

18 August, Tuesday

Time Temperature Precipitation Wind Pressure Humidity
00:00 +14°C° 0 mm 1 mps 742 mmHg 85%
01:00 +14°C° 0 mm 1 mps 742 mmHg 85%
02:00 +14°C° 0 mm 1 mps 742 mmHg 86%
03:00 +14°C° 0 mm 1 mps 742 mmHg 87%
04:00 +13°C° 0 mm 1 mps 742 mmHg 89%
05:00 +13°C° 0 mm 1 mps 742 mmHg 91%
06:00 +15°C° 0 mm 1 mps 743 mmHg 82%
07:00 +18°C° 0 mm 1 mps 743 mmHg 74%
08:00 +19°C° 0 mm 2 mps 743 mmHg 65%
09:00 +21°C° 0 mm 2 mps 743 mmHg 56%
10:00 +23°C° 0 mm 2 mps 743 mmHg 46%
11:00 +25°C° 0 mm 3 mps 744 mmHg 36%
12:00 +25°C° 0 mm 3 mps 743 mmHg 36%
13:00 +26°C° 0 mm 3 mps 743 mmHg 35%
14:00 +26°C° 0 mm 4 mps 743 mmHg 35%
15:00 +25°C° 0 mm 4 mps 743 mmHg 40%
16:00 +23°C° 0 mm 4 mps 743 mmHg 45%
17:00 +22°C° 0 mm 4 mps 743 mmHg 50%
18:00 +20°C° 0 mm 3 mps 743 mmHg 59%
19:00 +17°C° 0 mm 3 mps 743 mmHg 68%
20:00 +13°C° 0 mm 3 mps 743 mmHg 77%
21:00 +12°C° 0 mm 3 mps 744 mmHg 80%
22:00 +12°C° 0 mm 2 mps 744 mmHg 84%
23:00 +12°C° 0 mm 2 mps 744 mmHg 87%
Show more